QPF
0.00 0.00 0.00 0.00 0.00 0.00 0.00 0.00 0.00 0.00 0.00 0.00 0.00 0.00 0.00 0.00 0.00 0.00 0.00 0.00 0.00 0.00 0.00 0.00 0.00 0.00 0.00 0.00 0.00 0.00 0.00 0.00 0.00 0.00 0.00 0.00 0.00 0.00 0.00 0.00 0.00 0.00 0.01
0.00 0.00 0.00 0.00 0.00 0.00 0.00 0.00 0.00 0.00 0.00 0.00 0.00 0.00 0.00 0.00 0.00 0.00 0.00 0.00 0.00 0.00 0.00 0.00 0.00 0.00 0.00 0.00 0.00 0.00 0.00 0.00 0.00 0.00 0.00 0.00 0.00 0.00 0.00 0.00 0.00 0.00 0.00
0.01 0.01 0.00 0.00 0.00 0.00 0.00 0.00 0.00 0.00 0.00 0.00 0.00 0.00 0.00 0.00 0.00 0.00 0.00 0.00 0.00 0.00 0.00 0.00 0.00 0.00 0.00 0.00 0.00 0.00 0.00 0.00 0.00 0.00 0.00 0.00 0.00 0.00 0.00 0.00 0.00 0.00 0.00
0.01 0.01 0.01 0.01 0.00 0.00 0.00 0.00 0.00 0.01 0.01 0.00 0.00 0.00 0.01 0.01 0.01 0.01 0.00 0.00 0.00 0.00 0.00 0.00 0.00 0.00 0.00 0.00 0.00 0.00 0.00 0.00 0.00 0.00 0.00 0.00 0.00 0.00 0.00 0.00 0.00 0.00 0.01
0.02 0.01 0.01 0.01 0.01 0.01 0.01 0.00 0.01 0.01 0.01 0.02 0.02 0.02 0.02 0.02 0.01 0.01 0.00 0.00 0.00 0.00 0.00 0.00 0.00 0.00 0.00 0.00 0.00 0.00 0.00 0.00 0.00 0.00 0.00 0.00 0.00 0.00 0.00 0.00 0.00 0.00 0.00
0.02 0.03 0.02 0.02 0.01 0.01 0.01 0.01 0.02 0.02 0.02 0.03 0.03 0.02 0.01 0.01 0.01 0.01 0.00 0.00 0.00 0.00 0.00 0.00 0.00 0.00 0.00 0.00 0.00 0.00 0.00 0.00 0.00 0.00 0.00 0.00 0.00 0.00 0.00 0.00 0.00 0.00 0.00
0.02 0.01 0.01 0.01 0.01 0.01 0.01 0.01 0.01 0.01 0.02 0.02 0.01 0.01 0.01 0.01 0.01 0.01 0.01 0.00 0.00 0.00 0.00 0.00 0.00 0.00 0.00 0.00 0.00 0.00 0.00 0.00 0.00 0.00 0.00 0.00 0.00 0.00 0.00 0.00 0.00 0.00 0.01
0.03 0.03 0.03 0.02 0.01 0.01 0.01 0.01 0.01 0.01 0.01 0.01 0.00 0.00 0.00 0.00 0.00 0.00 0.00 0.00 0.00 0.00 0.00 0.00 0.00 0.00 0.00 0.00 0.00 0.00 0.00 0.00 0.00 0.00 0.00 0.00 0.00 0.00 0.00 0.00 0.00 0.00 0.00
0.03 0.03 0.03 0.02 0.01 0.00 0.00 0.00 0.00 0.00 0.00 0.00 0.00 0.00 0.00 0.00 0.00 0.01 0.01 0.01 0.00 0.00 0.00 0.00 0.00 0.00 0.00 0.00 0.00 0.00 0.00 0.00 0.00 0.00 0.00 0.00 0.00 0.00 0.00 0.00 0.00 0.00 0.00
0.01 0.01 0.01 0.01 0.01 0.00 0.00 0.00 0.00 0.00 0.00 0.00 0.00 0.00 0.00 0.00 0.00 0.00 0.01 0.01 0.00 0.00 0.00 0.00 0.00 0.00 0.00 0.00 0.00 0.00 0.00 0.00 0.00 0.00 0.00 0.00 0.00 0.00 0.00 0.00 0.00 0.00 0.00
0.02 0.01 0.01 0.01 0.01 0.01 0.01 0.00 0.00 0.00 0.00 0.00 0.00 0.00 0.00 0.00 0.00 0.00 0.01 0.01 0.00 0.00 0.00 0.00 0.00 0.00 0.00 0.00 0.00 0.00 0.00 0.00 0.00 0.00 0.00 0.00 0.00 0.00 0.00 0.00 0.00 0.00 0.00
0.02 0.02 0.02 0.02 0.02 0.01 0.01 0.01 0.01 0.00 0.00 0.00 0.00 0.00 0.00 0.00 0.00 0.00 0.00 0.00 0.00 0.00 0.00 0.00 0.00 0.00 0.00 0.00 0.00 0.00 0.00 0.00 0.00 0.00 0.00 0.00 0.00 0.00 0.00 0.00 0.00 0.00 0.00
0.03 0.03 0.03 0.03 0.02 0.02 0.01 0.01 0.01 0.01 0.01 0.00 0.00 0.00 0.00 0.00 0.00 0.00 0.00 0.00 0.00 0.00 0.00 0.00 0.00 0.00 0.00 0.00 0.00 0.00 0.00 0.00 0.00 0.00 0.00 0.00 0.00 0.00 0.00 0.00 0.00 0.00 0.00
0.03 0.03 0.03 0.03 0.02 0.02 0.01 0.01 0.01 0.01 0.01 0.01 0.00 0.00 0.00 0.00 0.00 0.00 0.00 0.00 0.00 0.00 0.00 0.00 0.00 0.00 0.00 0.00 0.00 0.00 0.00 0.00 0.00 0.00 0.00 0.00 0.00 0.00 0.00 0.00 0.00 0.00 0.00
0.03 0.03 0.03 0.02 0.02 0.02 0.01 0.01 0.01 0.01 0.01 0.00 0.00 0.00 0.00 0.00 0.00 0.00 0.00 0.00 0.00 0.01 0.00 0.00 0.00 0.00 0.00 0.00 0.00 0.01 0.01 0.01 0.01 0.00 0.00 0.00 0.00 0.00 0.00 0.00 0.00 0.00 0.00
0.02 0.03 0.03 0.03 0.03 0.02 0.02 0.01 0.01 0.01 0.01 0.01 0.01 0.01 0.00 0.00 0.00 0.01 0.01 0.01 0.01 0.01 0.01 0.00 0.00 0.01 0.01 0.01 0.01 0.01 0.01 0.01 0.01 0.01 0.01 0.01 0.01 0.00 0.00 0.00 0.00 0.00 0.00
0.03 0.03 0.03 0.03 0.02 0.02 0.01 0.01 0.01 0.01 0.01 0.01 0.01 0.01 0.01 0.01 0.01 0.01 0.01 0.01 0.01 0.01 0.01 0.01 0.01 0.01 0.01 0.01 0.01 0.01 0.01 0.01 0.01 0.01 0.01 0.01 0.01 0.01 0.01 0.01 0.01 0.00 0.00
0.02 0.02 0.01 0.01 0.00 0.00 0.00 0.00 0.00 0.00 0.00 0.00 0.00 0.00 0.01 0.01 0.01 0.01 0.01 0.01 0.01 0.01 0.01 0.01 0.01 0.01 0.01 0.01 0.01 0.01 0.01 0.01 0.01 0.01 0.01 0.01 0.01 0.01 0.01 0.01 0.01 0.01 0.01
0.01 0.01 0.01 0.01 0.01 0.01 0.00 0.00 0.00 0.00 0.00 0.00 0.00 0.00 0.00 0.01 0.00 0.01 0.01 0.01 0.01 0.01 0.01 0.01 0.01 0.01 0.01 0.01 0.01 0.01 0.01 0.01 0.01 0.01 0.01 0.01 0.01 0.01 0.02 0.02 0.02 0.02 0.02
0.01 0.01 0.01 0.01 0.01 0.01 0.00 0.00 0.00 0.00 0.00 0.00 0.00 0.00 0.00 0.01 0.01 0.01 0.01 0.01 0.02 0.02 0.02 0.02 0.02 0.02 0.01 0.01 0.01 0.01 0.01 0.01 0.01 0.01 0.01 0.01 0.01 0.01 0.02 0.02 0.02 0.02 0.02
0.02 0.02 0.02 0.01 0.01 0.00 0.00 0.00 0.00 0.00 0.00 0.00 0.00 0.01 0.01 0.01 0.01 0.01 0.01 0.02 0.02 0.03 0.03 0.03 0.03 0.02 0.02 0.02 0.02 0.01 0.01 0.01 0.00 0.01 0.01 0.01 0.01 0.01 0.01 0.02 0.03 0.03 0.03
0.00 0.00 0.00 0.00 0.00 0.00 0.00 0.00 0.00 0.00 0.00 0.01 0.01 0.01 0.01 0.01 0.01 0.01 0.02 0.02 0.02 0.03 0.03 0.03 0.03 0.03 0.03 0.03 0.03 0.02 0.02 0.01 0.01 0.01 0.02 0.02 0.02 0.01 0.01 0.02 0.03 0.03 0.03
0.00 0.00 0.00 0.00 0.00 0.00 0.00 0.00 0.00 0.00 0.00 0.00 0.01 0.01 0.01 0.02 0.02 0.02 0.03 0.03 0.03 0.03 0.03 0.04 0.03 0.03 0.03 0.03 0.03 0.03 0.03 0.02 0.02 0.02 0.02 0.02 0.02 0.02 0.03 0.03 0.03 0.04 0.04
0.00 0.00 0.00 0.00 0.00 0.00 0.00 0.00 0.00 0.00 0.01 0.01 0.01 0.02 0.02 0.02 0.03 0.04 0.04 0.05 0.05 0.05 0.05 0.04 0.03 0.02 0.03 0.03 0.03 0.03 0.02 0.02 0.02 0.02 0.02 0.02 0.02 0.02 0.03 0.03 0.04 0.04 0.05
0.00 0.00 0.00 0.00 0.00 0.00 0.00 0.00 0.01 0.01 0.01 0.01 0.02 0.02 0.02 0.03 0.04 0.05 0.07 0.07 0.07 0.07 0.05 0.04 0.03 0.03 0.03 0.03 0.03 0.02 0.03 0.02 0.02 0.02 0.02 0.02 0.02 0.03 0.03 0.03 0.04 0.06 0.05
0.00 0.00 0.00 0.00 0.00 0.00 0.00 0.00 0.01 0.01 0.02 0.02 0.03 0.03 0.03 0.05 0.06 0.07 0.08 0.08 0.09 0.09 0.07 0.05 0.05 0.05 0.04 0.04 0.03 0.03 0.04 0.03 0.02 0.02 0.01 0.01 0.02 0.02 0.02 0.03 0.04 0.05 0.06
MSLP
1015.48 1015.90 1016.32 1016.73 1017.10 1017.42 1017.70 1017.96 1018.20 1018.43 1018.66 1018.86 1019.03 1019.15 1019.21 1019.21 1019.15 1019.06 1018.96 1018.88 1018.82 1018.80 1018.82 1018.86 1018.90 1018.91 1018.89 1018.83 1018.71 1018.55 1018.37 1018.18 1017.99 1017.80 1017.63 1017.46 1017.28 1017.10 1016.93 1016.76 1016.61 1016.51 1016.45
1015.30 1015.73 1016.14 1016.53 1016.87 1017.17 1017.43 1017.67 1017.91 1018.13 1018.35 1018.55 1018.72 1018.83 1018.88 1018.86 1018.79 1018.68 1018.56 1018.45 1018.37 1018.32 1018.31 1018.33 1018.35 1018.36 1018.34 1018.28 1018.19 1018.08 1017.94 1017.80 1017.66 1017.53 1017.39 1017.25 1017.09 1016.92 1016.73 1016.55 1016.37 1016.23 1016.14
1015.09 1015.55 1015.97 1016.34 1016.66 1016.92 1017.15 1017.36 1017.57 1017.77 1017.98 1018.17 1018.32 1018.43 1018.47 1018.45 1018.37 1018.25 1018.11 1017.98 1017.88 1017.82 1017.79 1017.79 1017.80 1017.80 1017.79 1017.75 1017.68 1017.59 1017.49 1017.39 1017.29 1017.19 1017.09 1016.97 1016.82 1016.66 1016.47 1016.27 1016.07 1015.90 1015.77
1014.80 1015.31 1015.76 1016.13 1016.42 1016.66 1016.85 1017.03 1017.20 1017.38 1017.57 1017.74 1017.89 1017.99 1018.03 1018.00 1017.92 1017.80 1017.66 1017.52 1017.41 1017.33 1017.29 1017.27 1017.27 1017.27 1017.25 1017.22 1017.16 1017.09 1017.02 1016.94 1016.87 1016.79 1016.71 1016.60 1016.48 1016.32 1016.14 1015.93 1015.73 1015.53 1015.38
1014.39 1014.96 1015.45 1015.83 1016.12 1016.33 1016.50 1016.65 1016.80 1016.96 1017.13 1017.30 1017.44 1017.54 1017.59 1017.57 1017.49 1017.37 1017.22 1017.08 1016.96 1016.86 1016.80 1016.77 1016.76 1016.74 1016.72 1016.68 1016.63 1016.56 1016.49 1016.42 1016.36 1016.29 1016.23 1016.14 1016.04 1015.90 1015.73 1015.54 1015.34 1015.14 1014.97
1013.86 1014.48 1015.00 1015.40 1015.70 1015.91 1016.06 1016.20 1016.34 1016.49 1016.66 1016.83 1016.98 1017.09 1017.14 1017.13 1017.05 1016.93 1016.79 1016.64 1016.50 1016.39 1016.32 1016.27 1016.23 1016.20 1016.16 1016.10 1016.04 1015.96 1015.88 1015.81 1015.74 1015.68 1015.63 1015.56 1015.48 1015.38 1015.24 1015.08 1014.91 1014.73 1014.56
1013.23 1013.88 1014.42 1014.84 1015.14 1015.36 1015.52 1015.66 1015.81 1015.97 1016.14 1016.32 1016.48 1016.60 1016.66 1016.65 1016.58 1016.46 1016.31 1016.15 1016.00 1015.88 1015.78 1015.71 1015.65 1015.60 1015.54 1015.46 1015.37 1015.27 1015.17 1015.08 1015.01 1014.95 1014.90 1014.86 1014.81 1014.75 1014.67 1014.56 1014.43 1014.29 1014.15
1012.58 1013.22 1013.76 1014.17 1014.48 1014.70 1014.87 1015.03 1015.19 1015.37 1015.56 1015.75 1015.92 1016.04 1016.10 1016.10 1016.02 1015.90 1015.74 1015.57 1015.41 1015.28 1015.17 1015.08 1015.00 1014.93 1014.84 1014.74 1014.62 1014.49 1014.37 1014.26 1014.17 1014.11 1014.07 1014.05 1014.04 1014.03 1014.00 1013.96 1013.89 1013.80 1013.70
1012.00 1012.58 1013.08 1013.47 1013.76 1013.98 1014.16 1014.33 1014.51 1014.70 1014.90 1015.10 1015.27 1015.39 1015.44 1015.42 1015.34 1015.21 1015.04 1014.87 1014.71 1014.57 1014.45 1014.36 1014.27 1014.18 1014.08 1013.96 1013.82 1013.66 1013.51 1013.38 1013.28 1013.21 1013.18 1013.18 1013.20 1013.24 1013.27 1013.29 1013.28 1013.26 1013.21
1011.57 1012.06 1012.47 1012.81 1013.07 1013.27 1013.45 1013.62 1013.80 1013.99 1014.19 1014.38 1014.53 1014.62 1014.66 1014.62 1014.52 1014.38 1014.21 1014.05 1013.89 1013.76 1013.66 1013.58 1013.50 1013.41 1013.30 1013.17 1013.01 1012.84 1012.67 1012.51 1012.39 1012.31 1012.28 1012.29 1012.34 1012.41 1012.49 1012.56 1012.61 1012.64 1012.64
1011.35 1011.72 1012.03 1012.28 1012.49 1012.65 1012.81 1012.96 1013.12 1013.29 1013.46 1013.61 1013.73 1013.78 1013.78 1013.71 1013.60 1013.45 1013.29 1013.13 1013.00 1012.90 1012.83 1012.78 1012.72 1012.66 1012.56 1012.43 1012.27 1012.08 1011.89 1011.72 1011.57 1011.47 1011.43 1011.44 1011.50 1011.59 1011.69 1011.80 1011.89 1011.96 1011.99
1011.38 1011.60 1011.79 1011.95 1012.07 1012.19 1012.29 1012.40 1012.52 1012.65 1012.76 1012.85 1012.90 1012.90 1012.85 1012.75 1012.61 1012.46 1012.31 1012.19 1012.10 1012.05 1012.02 1012.02 1012.01 1011.97 1011.90 1011.78 1011.62 1011.43 1011.23 1011.03 1010.86 1010.74 1010.68 1010.67 1010.72 1010.81 1010.91 1011.03 1011.14 1011.22 1011.27
1011.62 1011.70 1011.76 1011.82 1011.86 1011.90 1011.94 1011.98 1012.04 1012.09 1012.12 1012.13 1012.10 1012.03 1011.92 1011.78 1011.63 1011.48 1011.36 1011.27 1011.24 1011.24 1011.28 1011.33 1011.37 1011.38 1011.34 1011.24 1011.09 1010.89 1010.68 1010.46 1010.27 1010.13 1010.03 1010.00 1010.02 1010.09 1010.18 1010.28 1010.38 1010.45 1010.51
1012.02 1011.97 1011.92 1011.87 1011.82 1011.77 1011.73 1011.70 1011.66 1011.62 1011.56 1011.47 1011.35 1011.20 1011.03 1010.85 1010.69 1010.55 1010.46 1010.42 1010.45 1010.52 1010.62 1010.73 1010.82 1010.87 1010.86 1010.78 1010.64 1010.44 1010.21 1009.98 1009.77 1009.59 1009.47 1009.41 1009.39 1009.43 1009.48 1009.56 1009.63 1009.69 1009.73
1012.49 1012.33 1012.18 1012.04 1011.90 1011.77 1011.64 1011.51 1011.37 1011.22 1011.05 1010.86 1010.65 1010.42 1010.20 1009.99 1009.81 1009.69 1009.64 1009.65 1009.74 1009.87 1010.03 1010.19 1010.32 1010.40 1010.41 1010.34 1010.20 1010.00 1009.76 1009.52 1009.29 1009.09 1008.94 1008.85 1008.81 1008.80 1008.83 1008.86 1008.90 1008.93 1008.95
1012.94 1012.71 1012.48 1012.26 1012.04 1011.82 1011.59 1011.36 1011.12 1010.85 1010.57 1010.28 1009.98 1009.68 1009.41 1009.17 1009.00 1008.91 1008.89 1008.95 1009.08 1009.27 1009.47 1009.66 1009.81 1009.90 1009.92 1009.84 1009.70 1009.49 1009.25 1009.00 1008.76 1008.55 1008.39 1008.27 1008.21 1008.18 1008.17 1008.18 1008.19 1008.20 1008.19
1013.29 1013.01 1012.73 1012.44 1012.14 1011.84 1011.52 1011.19 1010.83 1010.46 1010.08 1009.69 1009.31 1008.95 1008.64 1008.40 1008.24 1008.16 1008.18 1008.28 1008.45 1008.66 1008.89 1009.09 1009.24 1009.32 1009.32 1009.24 1009.08 1008.86 1008.61 1008.36 1008.12 1007.91 1007.75 1007.63 1007.56 1007.52 1007.51 1007.50 1007.49 1007.48 1007.46
1013.51 1013.20 1012.87 1012.53 1012.16 1011.78 1011.37 1010.93 1010.48 1010.00 1009.52 1009.05 1008.61 1008.21 1007.88 1007.64 1007.49 1007.44 1007.49 1007.63 1007.82 1008.04 1008.26 1008.45 1008.58 1008.63 1008.61 1008.49 1008.31 1008.09 1007.83 1007.58 1007.35 1007.16 1007.01 1006.90 1006.84 1006.81 1006.80 1006.79 1006.78 1006.77 1006.75
1013.58 1013.25 1012.89 1012.50 1012.07 1011.61 1011.11 1010.58 1010.03 1009.46 1008.90 1008.36 1007.87 1007.45 1007.12 1006.88 1006.76 1006.74 1006.81 1006.96 1007.16 1007.38 1007.58 1007.74 1007.84 1007.85 1007.78 1007.64 1007.44 1007.20 1006.94 1006.70 1006.48 1006.31 1006.18 1006.10 1006.06 1006.05 1006.05 1006.06 1006.06 1006.06 1006.05
1013.51 1013.17 1012.78 1012.35 1011.86 1011.33 1010.75 1010.14 1009.50 1008.86 1008.23 1007.65 1007.13 1006.69 1006.37 1006.15 1006.05 1006.06 1006.15 1006.31 1006.51 1006.71 1006.89 1007.01 1007.06 1007.03 1006.92 1006.75 1006.52 1006.27 1006.02 1005.79 1005.59 1005.44 1005.34 1005.28 1005.26 1005.27 1005.29 1005.31 1005.33 1005.35 1005.37
1013.32 1012.98 1012.58 1012.11 1011.57 1010.98 1010.33 1009.64 1008.93 1008.23 1007.55 1006.94 1006.40 1005.97 1005.66 1005.47 1005.40 1005.43 1005.55 1005.72 1005.91 1006.09 1006.23 1006.31 1006.32 1006.25 1006.11 1005.90 1005.66 1005.41 1005.16 1004.94 1004.76 1004.63 1004.54 1004.50 1004.50 1004.51 1004.54 1004.58 1004.62 1004.66 1004.70
1013.06 1012.73 1012.32 1011.82 1011.25 1010.59 1009.89 1009.14 1008.37 1007.63 1006.92 1006.29 1005.76 1005.34 1005.05 1004.89 1004.85 1004.91 1005.04 1005.21 1005.39 1005.55 1005.66 1005.71 1005.68 1005.58 1005.41 1005.20 1004.95 1004.70 1004.46 1004.25 1004.08 1003.96 1003.88 1003.84 1003.83 1003.85 1003.87 1003.91 1003.95 1004.00 1004.06
1012.77 1012.45 1012.04 1011.53 1010.92 1010.24 1009.48 1008.69 1007.90 1007.12 1006.40 1005.77 1005.25 1004.86 1004.59 1004.46 1004.45 1004.52 1004.66 1004.83 1005.00 1005.14 1005.23 1005.25 1005.20 1005.08 1004.91 1004.69 1004.45 1004.21 1003.98 1003.78 1003.61 1003.49 1003.40 1003.35 1003.32 1003.31 1003.31 1003.33 1003.36 1003.40 1003.46
1012.48 1012.19 1011.78 1011.27 1010.65 1009.94 1009.16 1008.35 1007.53 1006.75 1006.03 1005.41 1004.91 1004.54 1004.31 1004.20 1004.20 1004.29 1004.43 1004.60 1004.75 1004.88 1004.95 1004.95 1004.89 1004.77 1004.60 1004.39 1004.16 1003.94 1003.73 1003.54 1003.37 1003.24 1003.13 1003.04 1002.97 1002.92 1002.88 1002.86 1002.85 1002.87 1002.92
1012.22 1011.96 1011.57 1011.06 1010.44 1009.73 1008.94 1008.13 1007.31 1006.53 1005.83 1005.23 1004.75 1004.41 1004.20 1004.11 1004.12 1004.21 1004.35 1004.50 1004.64 1004.74 1004.79 1004.79 1004.72 1004.61 1004.45 1004.26 1004.06 1003.86 1003.66 1003.48 1003.31 1003.16 1003.02 1002.89 1002.77 1002.66 1002.56 1002.48 1002.42 1002.40 1002.43
1012.00 1011.77 1011.41 1010.92 1010.31 1009.60 1008.83 1008.02 1007.22 1006.47 1005.79 1005.21 1004.76 1004.45 1004.25 1004.17 1004.19 1004.27 1004.39 1004.51 1004.62 1004.70 1004.74 1004.72 1004.65 1004.55 1004.41 1004.24 1004.07 1003.89 1003.71 1003.54 1003.36 1003.19 1003.01 1002.83 1002.65 1002.47 1002.30 1002.16 1002.04 1001.97 1001.96
Thickness
5718 5715 5712 5709 5706 5703 5701 5698 5696 5693 5690 5687 5684 5681 5678 5675 5672 5668 5664 5661 5657 5653 5650 5647 5643 5640 5637 5634 5631 5628 5625 5623 5624 5627 5626 5628 5630 5633 5636 5639 5642 5646 5650
5718 5714 5711 5708 5705 5701 5698 5696 5693 5691 5688 5685 5681 5678 5675 5672 5668 5664 5660 5657 5653 5649 5646 5642 5639 5635 5632 5628 5624 5622 5619 5617 5617 5618 5619 5619 5621 5623 5626 5629 5633 5637 5641
5718 5713 5710 5706 5703 5700 5697 5694 5691 5688 5685 5682 5678 5675 5672 5669 5665 5661 5657 5653 5649 5646 5642 5638 5634 5630 5626 5623 5619 5616 5613 5612 5610 5609 5611 5611 5612 5613 5616 5619 5623 5626 5631
5716 5712 5708 5705 5702 5699 5696 5692 5689 5686 5683 5679 5676 5673 5670 5666 5662 5658 5654 5650 5646 5642 5638 5634 5630 5626 5622 5618 5615 5611 5608 5605 5603 5602 5603 5603 5603 5605 5605 5608 5612 5616 5621
5714 5709 5707 5704 5700 5696 5692 5689 5686 5683 5680 5677 5673 5670 5666 5662 5659 5656 5651 5647 5642 5638 5634 5630 5627 5623 5619 5615 5611 5608 5603 5600 5597 5595 5596 5595 5596 5596 5597 5599 5602 5606 5610
5712 5708 5705 5700 5696 5693 5690 5686 5683 5680 5677 5674 5669 5667 5663 5661 5658 5653 5648 5643 5639 5634 5630 5627 5622 5619 5616 5611 5608 5604 5600 5595 5593 5590 5590 5589 5590 5590 5590 5590 5592 5595 5600
5710 5706 5702 5697 5693 5690 5687 5683 5679 5676 5673 5670 5667 5663 5660 5657 5653 5649 5644 5639 5635 5631 5626 5622 5619 5616 5611 5607 5603 5599 5596 5593 5590 5587 5586 5586 5585 5585 5583 5583 5584 5587 5591
5708 5703 5699 5694 5691 5687 5682 5679 5675 5672 5668 5665 5662 5659 5655 5653 5649 5644 5640 5635 5631 5627 5623 5619 5614 5611 5607 5602 5598 5594 5591 5589 5586 5584 5583 5582 5581 5579 5577 5577 5578 5579 5582
5703 5699 5695 5690 5686 5681 5677 5674 5671 5666 5663 5659 5657 5653 5650 5648 5645 5640 5635 5630 5626 5624 5620 5615 5610 5606 5603 5597 5592 5589 5587 5585 5582 5579 5578 5576 5575 5573 5571 5569 5569 5570 5575
5699 5695 5690 5685 5681 5677 5674 5670 5665 5661 5658 5654 5651 5648 5645 5642 5640 5635 5630 5624 5621 5619 5616 5612 5607 5603 5599 5593 5587 5584 5581 5581 5577 5575 5572 5570 5569 5567 5566 5564 5565 5565 5568
5695 5689 5685 5680 5676 5672 5668 5664 5659 5655 5651 5647 5645 5643 5640 5637 5635 5631 5625 5619 5616 5614 5611 5608 5604 5599 5593 5588 5582 5579 5578 5575 5571 5567 5565 5564 5562 5561 5561 5560 5559 5560 5562
5688 5683 5678 5674 5670 5666 5660 5656 5652 5647 5643 5640 5637 5635 5634 5632 5629 5626 5621 5615 5611 5607 5605 5603 5599 5593 5588 5582 5577 5574 5571 5566 5563 5561 5559 5558 5558 5557 5556 5555 5554 5554 5555
5677 5673 5669 5665 5661 5657 5653 5648 5644 5640 5636 5633 5630 5628 5628 5626 5623 5619 5615 5611 5606 5601 5600 5597 5592 5586 5580 5576 5572 5568 5563 5560 5558 5556 5555 5556 5555 5553 5550 5548 5548 5547 5548
5665 5662 5658 5655 5651 5647 5643 5640 5636 5632 5628 5625 5623 5621 5620 5618 5615 5613 5609 5605 5600 5595 5591 5588 5583 5578 5572 5569 5566 5563 5559 5556 5554 5553 5553 5552 5549 5545 5543 5542 5541 5541 5542
5654 5650 5647 5644 5640 5636 5633 5630 5628 5625 5621 5618 5616 5613 5610 5610 5610 5605 5599 5596 5592 5587 5582 5577 5574 5570 5567 5565 5561 5558 5554 5551 5548 5548 5546 5545 5543 5541 5539 5537 5536 5536 5537
5642 5638 5634 5631 5628 5625 5622 5620 5619 5615 5613 5609 5606 5602 5602 5600 5598 5594 5589 5585 5580 5574 5569 5569 5569 5566 5563 5561 5557 5555 5551 5548 5546 5544 5542 5541 5539 5538 5536 5534 5531 5532 5533
5630 5625 5622 5619 5616 5612 5610 5607 5606 5607 5604 5601 5597 5594 5590 5588 5586 5583 5579 5575 5570 5564 5560 5563 5562 5560 5558 5555 5552 5550 5548 5546 5542 5539 5538 5537 5535 5534 5532 5530 5529 5528 5529
5616 5613 5609 5605 5602 5599 5597 5594 5592 5590 5590 5591 5589 5585 5581 5578 5575 5572 5568 5563 5562 5557 5554 5555 5555 5554 5551 5549 5547 5545 5543 5541 5538 5536 5535 5533 5532 5530 5529 5528 5527 5526 5526
5603 5599 5596 5592 5589 5586 5583 5581 5578 5576 5575 5575 5575 5574 5571 5568 5565 5562 5557 5553 5554 5553 5549 5548 5547 5546 5545 5544 5542 5540 5538 5537 5535 5533 5532 5530 5529 5527 5527 5526 5525 5523 5522
5589 5586 5583 5579 5576 5573 5570 5567 5565 5563 5561 5560 5560 5559 5558 5555 5554 5552 5548 5545 5544 5544 5544 5543 5542 5541 5540 5539 5537 5536 5534 5533 5532 5531 5530 5528 5527 5525 5525 5524 5523 5522 5522
5575 5571 5569 5565 5562 5559 5556 5553 5550 5548 5547 5546 5546 5545 5540 5539 5540 5540 5540 5539 5538 5538 5538 5537 5537 5536 5536 5534 5533 5532 5531 5531 5530 5529 5528 5527 5526 5524 5523 5522 5522 5521 5521
5561 5557 5554 5550 5548 5545 5541 5539 5536 5534 5533 5532 5533 5532 5528 5526 5528 5529 5530 5531 5531 5531 5531 5531 5532 5532 5532 5531 5531 5530 5529 5529 5529 5528 5527 5526 5524 5523 5522 5521 5520 5520 5519
5546 5543 5540 5536 5533 5530 5527 5524 5521 5519 5518 5518 5517 5518 5518 5517 5518 5519 5521 5522 5524 5525 5527 5527 5527 5528 5529 5528 5528 5527 5527 5527 5527 5526 5525 5524 5523 5522 5521 5520 5520 5519 5519
5532 5529 5526 5522 5519 5516 5513 5510 5508 5506 5505 5504 5505 5505 5506 5508 5510 5512 5514 5516 5518 5520 5522 5523 5524 5525 5526 5526 5526 5525 5525 5525 5524 5523 5523 5522 5522 5521 5520 5519 5519 5519 5520
5519 5515 5511 5508 5505 5502 5499 5497 5496 5494 5493 5493 5494 5496 5497 5499 5502 5505 5507 5510 5512 5515 5518 5519 5521 5522 5523 5524 5524 5523 5522 5521 5520 5520 5519 5519 5519 5519 5518 5518 5518 5519 5519
5505 5502 5498 5495 5492 5489 5487 5485 5484 5484 5484 5484 5486 5488 5490 5492 5495 5498 5501 5504 5507 5510 5513 5515 5517 5519 5520 5521 5521 5520 5518 5517 5516 5516 5516 5516 5517 5517 5517 5517 5517 5517 5518